TimeCDT,TemperatureF,Dew PointF,Humidity,Sea Level PressureIn,VisibilityMPH,Wind Direction,Wind SpeedMPH,Gust SpeedMPH,PrecipitationIn,Events,Conditions,WindDirDegrees,DateUTC
12:56 AM,41.9,38.8,89,30.33,10.0,Calm,Calm,-,N/A,,Overcast,0,2013-04-22 05:56:00
1:56 AM,41.9,38.8,89,30.32,10.0,Calm,Calm,-,N/A,,Mostly Cloudy,0,2013-04-22 06:56:00
2:56 AM,36.9,36.0,97,30.31,10.0,Calm,Calm,-,N/A,,Clear,0,2013-04-22 07:56:00
3:56 AM,36.9,36.9,100,30.31,10.0,Calm,Calm,-,N/A,,Clear,0,2013-04-22 08:56:00
4:56 AM,34.9,34.0,97,30.32,10.0,Calm,Calm,-,N/A,,Clear,0,2013-04-22 09:56:00
5:56 AM,36.9,36.0,97,30.34,10.0,Calm,Calm,-,N/A,,Clear,0,2013-04-22 10:56:00
6:56 AM,39.9,39.9,100,30.35,10.0,Calm,Calm,-,N/A,,Clear,0,2013-04-22 11:56:00
7:56 AM,52.9,39.9,61,30.35,10.0,SE,6.9,-,N/A,,Clear,140,2013-04-22 12:56:00
8:56 AM,56.8,39.9,53,30.35,10.0,SSE,6.9,-,N/A,,Clear,150,2013-04-22 13:56:00
9:56 AM,61.9,41.9,48,30.34,10.0,SSE,5.8,-,N/A,,Clear,160,2013-04-22 14:56:00
10:56 AM,64.9,39.9,40,30.34,10.0,SW,3.5,-,N/A,,Clear,220,2013-04-22 15:56:00
11:56 AM,66.9,39.9,37,30.31,10.0,SW,3.5,-,N/A,,Clear,220,2013-04-22 16:56:00
12:56 PM,68.9,39.9,35,30.27,10.0,Variable,5.8,-,N/A,,Partly Cloudy,0,2013-04-22 17:56:00
1:56 PM,70.0,41.0,35,30.24,10.0,ENE,10.4,-,N/A,,Partly Cloudy,60,2013-04-22 18:56:00
2:56 PM,70.0,41.0,35,30.21,10.0,NE,11.5,-,N/A,,Clear,50,2013-04-22 19:56:00
3:56 PM,72.0,39.9,31,30.18,10.0,North,8.1,-,N/A,,Clear,350,2013-04-22 20:56:00
8:56 PM,48.9,43.9,83,30.18,7.0,Calm,Calm,-,N/A,,Clear,0,2013-04-23 01:56:00
9:56 PM,48.9,43.9,83,30.19,10.0,West,3.5,-,N/A,,Clear,280,2013-04-23 02:56:00
10:56 PM,45.9,41.9,86,30.19,10.0,Calm,Calm,-,N/A,,Clear,0,2013-04-23 03:56:00
11:56 PM,45.9,39.9,80,30.19,10.0,Calm,Calm,-,N/A,,Clear,0,2013-04-23 04:56:00